LIBNLIED

Guest
Details From LIBN - LECCE
To LIED - DECIMOMANNU
Flight Number -
Tags generated
Created
Modified
Stats Distance 437 nm / 809 km
Max Altitude 0 ft / 0 m
Waypoints 10
Social Downloads 6
Likes 0
Share VATSIM

Download

Looking for another format? Having issues loading an existing format? Contact us
Advertisement - Login to hide

Notes

None

Route

LIBN MATED UM603 SOR UM159 BELOK LIED

ID Type Via Altitude Latitude Longitude Leg Dist Tot Dist Heading (true) Name
O LIBN APT - 0 ft / 0 m 40.23898˚ 18.13309˚ - 0 nm - LECCE
MATED FIX - 0 ft / 0 m 40.61056˚ 16.16833˚ 92 nm 92 nm 285° / 283° -
VEGAN FIX UM603 (AWY-HI) 0 ft / 0 m 40.60444˚ 15.46917˚ 31 nm 124 nm 270° / 269° -
SOR VOR UM603 (AWY-HI) 0 ft / 0 m 40.58249˚ 14.33527˚ 51 nm 176 nm 269° / 268° SORRENTO VOR-DME
EDOPA FIX UM159 (AWY-HI) 0 ft / 0 m 40.42250˚ 13.76528˚ 27 nm 203 nm 250° / 250° -
TAGEL FIX UM159 (AWY-HI) 0 ft / 0 m 40.29778˚ 13.31111˚ 22 nm 226 nm 250° / 250° -
BEROL FIX UM159 (AWY-HI) 0 ft / 0 m 40.20472˚ 13.01306˚ 14 nm 240 nm 248° / 248° -
RONAB FIX UM159 (AWY-HI) 0 ft / 0 m 39.86972˚ 11.89111˚ 55 nm 296 nm 249° / 248° -
BELOK FIX UM159 (AWY-HI) 0 ft / 0 m 39.38972˚ 10.36083˚ 76 nm 372 nm 248° / 247° -
O LIED APT - 0 ft / 0 m 39.35394˚ 8.97249˚ 64 nm 437 nm 269° / 268° DECIMOMANNU

Altitude Profile

Advertisement - Login to hide

Weather


0- 5 10 15 20 25 30 35+ Temperature / ° C

Clouds and Precipitation
Forecast for 2018-05-23 06:00 UTC. Updated 2 hours ago

Ground ~20,000 ft ~40,000 ft Winds

LIBN

Details ICAO LIBN (LCC)
Name LECCE
Region Italy
Timezone Europe/Rome (UTC+2.0)
Stats Elevation 156 ft / 48 m (AMSL)
Location 40.238982° 18.133091°
Runways 1
Magnetic Variation 3.930° E

METAR

LIBN 230655Z VRB01KT 8000 TS FEW025CB SCT040 21/19 Q1014 RMK OVC BKN100 VIS MIN 8000 WIND THR14 VRB03KT WIND THR32 VRB03KT BLU

Decode

TAF

Not found

Departure Runways

ID Width Length Bearing (true) Bearing (mag) Surface Threshold Offset Overrun Length
14 197 ft / 60 m 6,786 ft / 2,068 m 145.87° 141.94° Asphalt 197 ft / 60 m 0 ft / 0 m
32 197 ft / 60 m 6,786 ft / 2,068 m 325.87° 321.94° Asphalt 448 ft / 137 m 0 ft / 0 m

LIED

Details ICAO LIED (DCI)
Name DECIMOMANNU
Region Italy
Timezone Europe/Rome (UTC+2.0)
Stats Elevation 100 ft / 30 m (AMSL)
Location 39.353939° 8.972494°
Runways 2
Magnetic Variation 2.331° E

METAR

LIED 230655Z 32014KT 9999 SCT025 19/18 Q1016 RMK SCT VIS MIN 9999 WIND THR35 33014KT WIND THR17 /////KT BLU

Decode

TAF

Not found

Destination Runways

ID Width Length Bearing (true) Bearing (mag) Surface Threshold Offset Overrun Length
17L 148 ft / 45 m 9,799 ft / 2,987 m 167.21° 164.88° Asphalt 494 ft / 151 m 0 ft / 0 m
17R 74 ft / 23 m 8,580 ft / 2,615 m 167.00° 164.67° Asphalt 0 ft / 0 m 0 ft / 0 m
35L 74 ft / 23 m 8,580 ft / 2,615 m 347.00° 344.67° Asphalt 0 ft / 0 m 0 ft / 0 m
35R 148 ft / 45 m 9,799 ft / 2,987 m 347.21° 344.88° Asphalt 495 ft / 151 m 0 ft / 0 m

Popular Alternatives